Location: Caltech
(34.1382°N, 118.1253°W)
Time: 18:02:03
(UTC-07:00)

NOAA 19 - Visible Passes

Search period start: 27 August 2014 00:00
Search period end: 06 September 2014 00:00
Orbit: 843 x 863 km, 98.9° (Epoch: 06 September)

Date Brightness Start Highest point End Pass type
(mag) Time Alt. Az. Time Alt. Az. Time Alt. Az.
27 Aug 7.8 01:57:13 10° NE 01:58:07 13° ENE 01:58:07 13° ENE visible
27 Aug 6.3 03:36:41 10° N 03:40:10 35° NNW 03:40:10 35° NNW visible
28 Aug 6.3 03:25:32 10° N 03:28:53 36° N 03:28:53 36° N visible
29 Aug 6.5 03:14:25 10° N 03:17:36 36° N 03:17:36 36° N visible
30 Aug 6.7 03:03:22 10° NNE 03:06:19 33° NNE 03:06:19 33° NNE visible
30 Aug 7.3 04:47:20 10° NW 04:48:22 11° NW 04:48:22 11° NW visible
31 Aug 6.9 02:52:22 10° NNE 02:55:02 29° NNE 02:55:02 29° NNE visible
31 Aug 7.1 04:35:07 10° NNW 04:37:05 14° NW 04:37:05 14° NW visible
01 Sep 7.2 02:41:25 10° NNE 02:43:45 25° NE 02:43:45 25° NE visible
01 Sep 7.0 04:23:25 10° NNW 04:25:48 17° NW 04:25:48 17° NW visible
02 Sep 7.4 02:30:32 10° NNE 02:32:28 21° NE 02:32:28 21° NE visible
02 Sep 6.9 04:11:54 10° NNW 04:14:31 20° NW 04:14:31 20° NW visible
03 Sep 7.7 02:19:44 10° NE 02:21:10 17° NE 02:21:10 17° NE visible
03 Sep 6.8 04:00:31 10° N 04:03:14 23° NW 04:03:14 23° NW visible
04 Sep 7.9 02:09:02 10° NE 02:09:53 14° NE 02:09:53 14° NE visible
04 Sep 6.7 03:49:14 10° N 03:51:56 26° NNW 03:51:56 26° NNW visible
05 Sep 8.1 01:58:29 10° NE 01:58:36 10° NE 01:58:36 10° NE visible
05 Sep 6.7 03:38:00 10° N 03:40:39 27° NNW 03:40:39 27° NNW visible
